Weather in Posadas

Argentina     27°23′36″S   55°58′19″W
temp.,
°C
wind,
m/s
gust,
m/s
humid.,
%
clouds,
%
prec.,
mm/h
press.,
hPa
HPBL,
m
7 march, sun
sun700:00+18se23630 0.0 101286
03:00+17ese23730 0.0 101161
06:00+16e12820 0.0 101124
09:00+23ene12600 0.0 1013276
12:00+33wsw11340 0.0 10121552
15:00+33wnw22270 0.0 10101924
18:00+28w24420 0.0 1008524
21:00+22s23560 0.0 101068
8 march, mon
mon800:00+19ese23610 0.0 101143
03:00+18e22750 0.0 101033
06:00+17e12840 0.0 101123
09:00+25sw00590 0.0 1013269
12:00+31ssw23320 0.0 10131795
15:00+33sw33250 0.0 10102218
18:00+30sw46360 0.0 1009712
21:00+23s23460 0.0 101140
9 march, tue
tue900:00+20se236012 0.0 101271
03:00+19e23696 0.0 101150
06:00+18se12740 0.0 101223
09:00+24se25580 0.0 1013297
12:00+31sse46360 0.0 10121822
15:00+33s45290 0.0 10102409
18:00+30sse25340 0.0 1008687
21:00+24se311450 0.0 1010305
10 march, wed
wed1000:00+20se26680 0.0 1011147
03:00+18ese26790 0.0 1010150
06:00+17ese22880 0.0 101163
09:00+23ese35640 0.0 1012337
12:00+30se34320 0.0 10111614
15:00+32se34240 0.0 10082080
18:00+30se35320 0.0 1006617
21:00+22ese23430 0.0 100852
11 march, thu
thu1100:00+19e25640 0.0 1009107
03:00+17e25760 0.0 1009111
06:00+16e23840 0.0 100981
09:00+23e24590 0.0 1011270
12:00+33se12260 0.0 10101436
15:00+36sse22180 0.0 10092367
18:00+31se132922 0.0 1008117
21:00+24ese223516 0.0 100924